This is the latest recevied weather packets stored in our database for station/object F4GQK-13. If no packets are shown the sender has not sent any weather packets the latest 10 day(s).
| Time | Temp. | Humidity | Pressure | Rain* | Wind** | Luminosity | Snow |
|---|---|---|---|---|---|---|---|
| 1777898705 | 15° C | 95% | 1013.5 hPa | 0.51 mm | - | 294 W/m² | - |
| 1777898405 | 15° C | 96% | 1013.4 hPa | 0.51 mm | - | 313 W/m² | - |
| 1777898105 | 15° C | 96% | 1013.4 hPa | 0.51 mm | - | 328 W/m² | - |
| 1777897804 | 15° C | 96% | 1013.2 hPa | 0.51 mm | - | 327 W/m² | - |
| 1777897505 | 15° C | 96% | 1013.4 hPa | 0.51 mm | - | 328 W/m² | - |
| 1777897205 | 15.56° C | 96% | 1013.5 hPa | 0.51 mm | - | 326 W/m² | - |
| 1777896905 | 15.56° C | 96% | 1013.4 hPa | 0.25 mm | - | 274 W/m² | - |
| 1777896605 | 15.56° C | 97% | 1013.6 hPa | 0.25 mm | - | 282 W/m² | - |
| 1777896305 | 15.56° C | 96% | 1013.6 hPa | 0.51 mm | - | 217 W/m² | - |
| 1777896004 | 15.56° C | 97% | 1013.7 hPa | 0.25 mm | - | 235 W/m² | - |
| 1777895705 | 15.56° C | 96% | 1013.6 hPa | 0.25 mm | - | 256 W/m² | - |
| 1777895404 | 15.56° C | 97% | 1013.7 hPa | 0.25 mm | - | 220 W/m² | - |
| 1777895104 | 15.56° C | 97% | 1013.7 hPa | 0.25 mm | - | 281 W/m² | - |
| 1777894805 | 15.56° C | 97% | 1013.7 hPa | 0.25 mm | - | 297 W/m² | - |
| 1777894505 | 15° C | 97% | 1013.7 hPa | 0.25 mm | - | 291 W/m² | - |
| 1777894204 | 14.44° C | 97% | 1013.7 hPa | 0.51 mm | - | 263 W/m² | - |
| 1777893905 | 15° C | 97% | 1013.8 hPa | 0.51 mm | - | 208 W/m² | - |
| 1777893605 | 15° C | 98% | 1013.9 hPa | 0.76 mm | - | 185 W/m² | - |
| 1777893305 | 14.44° C | 98% | 1013.9 hPa | 1.27 mm | - | 168 W/m² | - |
| 1777893006 | 15° C | 98% | 1013.8 hPa | 1.52 mm | - | 180 W/m² | - |
| 1777892705 | 15° C | 98% | 1013.9 hPa | 1.52 mm | - | 248 W/m² | - |
| 1777892405 | 14.44° C | 98% | 1014.1 hPa | 1.52 mm | - | 260 W/m² | - |
| 1777892105 | 14.44° C | 98% | 1014 hPa | 1.78 mm | - | 255 W/m² | - |
| 1777891805 | 14.44° C | 98% | 1014 hPa | 1.78 mm | - | 240 W/m² | - |
| 1777891504 | 14.44° C | 98% | 1013.9 hPa | 2.03 mm | - | 243 W/m² | - |
* Rain latest hour (hover to see other rain measurements)
** Current wind speed in m/s (hover to see current wind gust speed)